Regional Weather Roundup
Issued by NWS

Home | Current Version | Previous Version | Graphics & Text | Print | Product List | Glossary On
Versions: 1 2 3 4 5 6 7 8 9 10 11 12 13 14 15 16 17 18 19 20 21 22 23 24 25 26 27 28 29 30 31 32 33 34 35 36 37 38 39 40 41 42 43 44 45 46 47 48 49 50
000
ASUS45 KTFX 301004
RWRMT
MONTANA HOURLY WEATHER ROUNDUP
NATIONAL WEATHER SERVICE GREAT FALLS MT
404 AM MDT TUE SEP 30 2014

NOTE: "FAIR" INDICATES FEW OR NO CLOUDS BELOW 12000 FEET WITH NO
SIGNIFICANT WEATHER AND/OR OBSTRUCTIONS TO VISIBILITY.

* THESE STATIONS ARE NOT UNDER NWS QUALITY CONTROL. THEY DO NOT
   REPORT WEATHER SUCH AS PRECIPITATION OR FOG.

MTZ001>007-043-301100-
WEST OF THE DIVIDE
CITY           SKY/WX    TMP DP  RH WIND       PRES   REMARKS
KALISPELL      CLOUDY    55  48  77 S9        29.75F
MISSOULA       CLOUDY    50  50 100 CALM      29.83F
BUTTE          CLOUDY    46  45  96 CALM      29.89S
MULLAN PASS    RAIN      43  43 100 VRB5      29.85F VSB 1
* ESSEX        N/A       50  48  93 SE1        N/A
* LINCOLN      N/A       48  46  93 S4G10      N/A
* LOOKOUT PASS N/A       48  46  93 N4         N/A
* POLSON       N/A       48  47  96 SE1        N/A
* RONAN APT    CLOUDY    52  48  86 N/A        N/A
* SEELEY LAKE  N/A       47  46  96 N/A        N/A
* THOMP F APT  CLOUDY    41  40  96 S2         N/A
$$

MTZ008-052>055-301100-
SOUTHWEST MONTANA
CITY           SKY/WX    TMP DP  RH WIND       PRES   REMARKS
BOZEMAN        LGT RAIN  48  46  93 E3        29.85F
DILLON         LGT RAIN  46  41  83 S8        29.89S
W YELLOWSTONE  CLOUDY    41  39  93 W5        29.93F
* THREE FORKS  CLOUDY    50  30  46 N/A        N/A
* BOULDER HILL N/A       47  35  63 S1G9       N/A
* RAYNOLDS PAS N/A       41  30  65 SW9G15     N/A
* WHITEHALL    N/A       53  42  66 W5G10      N/A
* WISE RIVER   N/A       46  39  77 W7G16      N/A
$$

MTZ009>010-012-014-046-048-049-054-301100-
EAST SLOPES AND CENTRAL MONTANA
CITY           SKY/WX    TMP DP  RH WIND       PRES   REMARKS
CUT BANK       CLOUDY    57  43  60 W18G26    29.65S
GREAT FALLS    CLOUDY    54  43  67 SW10      29.69S
HELENA         CLOUDY    55  43  64 W10       29.78F
MALMSTROM AFB  CLOUDY    55  43  64 SW17      29.71S
* CONRAD       CLOUDY    55  52  90 N/A        N/A
* DEARBORN     N/A       54  47  77 E1G9       N/A
* EAST GLACIER N/A       51  41  69 W19G27     N/A
* MONARCH      N/A       48  33  56 SW16       N/A
* PENDROY      N/A       55  39  55 NW13       N/A
* ROGERS PASS  N/A       45  43  93 SE10G22    N/A
* SAINT MARY   N/A       53  42  66 S10G22     N/A
* SWEET GRASS  N/A       54  48  80 SW16       N/A
$$

MTZ011-013-016-021-035-040-045-047-050-051-301100-
NORTH CENTRAL MONTANA
CITY           SKY/WX    TMP DP  RH WIND       PRES   REMARKS
LEWISTOWN      FAIR      52  43  72 SW15      29.71S
* CHESTER      N/A       54  47  77 SW8G14     N/A
* DENTON       N/A       49  43  80 SW4        N/A
* GEYSER       N/A       51  39  64 SW14       N/A
* JUDITH GAP   N/A       42  42 100 S3         N/A
* LOMA         N/A       56  48  75 SW10       N/A
$$

MTZ017>020-022>027-061-062-301100-
NORTHEAST MONTANA
CITY           SKY/WX    TMP DP  RH WIND       PRES   REMARKS
GLASGOW        CLOUDY    52  48  86 SE10      29.70F
GLENDIVE       CLOUDY    52  52 100 CALM      29.74F VSB 2
JORDAN         CLOUDY    52  50  93 CALM      29.70F
SIDNEY         CLOUDY    54  50  86 SE7       29.76F
WOLF POINT     CLOUDY    52  48  86 E7        29.73F
* BEAVER HILL  N/A       52  51  96 SE10       N/A
* CIRCLE       N/A       52  50  93 S8         N/A
* LINDSAY DVD  N/A       50  50 100 SE11       N/A
* NAVAJO       N/A       49  49 100 SE12G17    N/A
* SACO         N/A       48  47  96 E7         N/A
$$

MTZ028>042-056>058-301100-
SOUTHCENTRAL AND SOUTHEAST MONTANA
CITY           SKY/WX    TMP DP  RH WIND       PRES   REMARKS
BAKER          LGT RAIN  52  52 100 SE7       29.72F VSB 1 1/4
BILLINGS       CLEAR     46  45  96 SW10      29.73S
LIVINGSTON     CLOUDY    52  45  77 W16       29.80S
MILES CITY     CLOUDY    52  48  86 CALM      29.72S
* LAUREL APT   CLEAR     43  39  86 N/A        N/A
* ROUNDUP APT  PTCLDY    45  39  80 N/A        N/A
* ALZADA       N/A       51  51 100 W4         N/A
* HYSHAM       N/A       50  48  93 W6         N/A
* LAME DEER    N/A       49  49 100 W7         N/A
* REED POINT   N/A       39  38  96 E2         N/A
* ROSCOE HILL  N/A       52  25  35 SW6G17     N/A
$$

REGIONAL REPORTS...DAKOTAS
CITY           SKY/WX    TMP DP  RH WIND       PRES   REMARKS
WILLISTON      LGT RAIN  54  52  93 SE9       29.76F
DICKINSON      LGT RAIN  52  52 100 E12       29.73F
BEACH          LGT RAIN  50  50 100 SE7       29.74F
CROSBY         CLOUDY    50  50 100 SE9       29.79F
TIOGA          LGT RAIN  50  50 100 E6        29.81F VSB 2 1/2
WATFORD CITY   LGT RAIN  50  50 100 SE3       29.75F
BISMARCK       CLOUDY    54  50  86 E13       29.81F
GRAND FORKS    PTCLDY    43  41  93 SE7       30.00F
FARGO          PTCLDY    45  41  86 SE12      29.99F
BUFFALO SD     CLOUDY    52  52 100 NE13      29.63F
RAPID CITY     FOG       54  54 100 N17       29.57F VSB 1 1/2
$$

REGIONAL REPORTS...WYOMING/IDAHO/WASHINGTON
CITY           SKY/WX    TMP DP  RH WIND       PRES   REMARKS
GILLETTE       LGT RAIN  50  48  93 E5        29.71F
SHERIDAN       CLOUDY    52  48  86 E3        29.73F
CODY           PTCLDY    54  36  51 W12G20    29.79S
YELLOWSTONE LA MOCLDY    37  34  89 CALM      29.98F
SALMON         CLOUDY    50  46  86 CALM      29.89F
MULLAN PASS    RAIN      43  43 100 VRB5      29.85S VSB 1
SAND POINT     CLOUDY    54  46  74 S6        29.74F
SPOKANE        CLOUDY    54  48  80 S17       29.78S

$$




USA.gov is the U.S. government's official web portal to all federal, state and local government web resources and services.